Find Starlink 30967

NORAD ID: 58416 Int'l Des: 2023-180 Owner: SPXS Country: US Constellation: starlink operational
LEOCIRCULAR

Live-Position

3D-Globus wird geladen...

Über Starlink 30967

Beschreibung wird geladen...

Nächste Überflüge

Passes for default location (London). Set your location on the main map for personalized predictions.

Höhenverlauf

Loading altitude history...

Zweizeiliger Elementsatz

1 58416U 23180Q 26130.20348157 .00003616 00000-0 14086-3 0 9998
2 58416 43.0085 65.1484 0002822 268.9324 91.1204 15.27581501137038
Epoch: 10. Mai 2026 • Age: 7 hours

Aktueller Status

Höhe 494.4 km
Geschwindigkeit 7.62 km/s
Subsatellitenpunkt -43.02°S, 74.5°W
Startdatum 22. Nov. 2023
Alter 2.4 years
Typ internet

Technische Details

Klassifizierung Payload
Masse 730.00 kg
Trockenmasse 700.00 kg
Gesamtmasse 730.00 kg
Länge 0.30 m
Durchmesser 4.10 m
Spannweite 29.00 m
Form Box + pan
Hersteller SPXS
Bus-Typ Starlink V2M
Phasenstatus In Orbit
Besitzer/Staat SPXS/US

Most Searched